Weather History for Douglas, WY

Change the Weather History Date:

Monday, December 24, 2012

  Actual Average Record
Temperature  
Mean Temperature 22 °F 24 °F  
Max Temperature 37 °F 37 °F 52 °F (1999)
Min Temperature 7 °F 10 °F -9 °F (2009)
Degree Days  
Heating Degree Days 43 41  
Month to date heating degree days 706 980  
Since 1 July heating degree days 2253 2802  
Cooling Degree Days 0 0  
Month to date cooling degree days 0 0  
Year to date cooling degree days 831 486  
Moisture  
Dew Point 11 °F    
Average Humidity 66    
Maximum Humidity 88    
Minimum Humidity 44    
Precipitation  
Precipitation T in 0.01 in 0.04 in (2007)
Month to date precipitation T 0.32  
Year to date precipitation 5.26 13.31  
Sea Level Pressure  
Sea Level Pressure 29.94 in    
Wind  
Wind Speed 9 mph (ENE)    
Max Wind Speed 22 mph    
Max Gust Speed 25 mph    
Visibility 6 miles    
Events Snow    
T = Trace of Precipitation, MM = Missing Value Source: NWS Daily Summary

Daily Weather History Graph

Daily Weather History Graph

Search for Another Location

Airport:

Trip Planner

Search our weather history database for the weather conditions in past years. The results will help you decide how hot, cold, wet, or windy it might be!

Date:

Astronomy

Dec. 24, 2012 Rise Set
Actual Time 7:30 AM MST 4:32 PM MST
Civil Twilight 6:58 AM MST 5:04 PM MST
Nautical Twilight 6:22 AM MST 5:40 PM MST
Astronomical Twilight 5:47 AM MST 6:14 PM MST
Moon 2:03 PM MST (12/24) 4:09 AM MST (12/24)
Length of Visible Light 10h 06m
Length of Day
9h 02m
Waxing Gibbous, 89% of the Moon is Illuminated
Dec 24
Waxing Gibbous
Dec 28
Full
Jan 4
Last Quarter
Jan 11
New
Jan 18
First Quarter

Hourly Weather History & Observations

Time (MST) Temp. Windchill Dew Point Humidity Pressure Visibility Wind Dir Wind Speed Gust Speed Precip Events Conditions
12:53 AM 26.1 °F 16.8 °F 12.9 °F 58% 29.89 in 10.0 mi SE 9.2 mph - N/A   Overcast
1:53 AM 27.0 °F 17.3 °F 12.9 °F 56% 29.87 in 10.0 mi ESE 10.4 mph - N/A   Overcast
2:53 AM 28.0 °F 18.1 °F 15.1 °F 58% 29.86 in 10.0 mi ESE 11.5 mph - N/A   Overcast
3:53 AM 28.0 °F 17.5 °F 16.0 °F 61% 29.84 in 10.0 mi ESE 12.7 mph - N/A   Overcast
4:53 AM 27.0 °F 17.3 °F 17.1 °F 66% 29.85 in 10.0 mi ESE 10.4 mph - N/A   Mostly Cloudy
5:53 AM 28.0 °F 18.1 °F 16.0 °F 61% 29.86 in 10.0 mi ESE 11.5 mph - N/A   Mostly Cloudy
6:53 AM 27.0 °F 18.7 °F 15.1 °F 61% 29.89 in 10.0 mi ESE 8.1 mph - N/A   Overcast
7:53 AM 27.0 °F 18.0 °F 15.1 °F 61% 29.88 in 10.0 mi SE 9.2 mph - N/A   Clear
8:53 AM 28.9 °F 21.1 °F 16.0 °F 58% 29.88 in 10.0 mi ESE 8.1 mph - N/A   Overcast
9:53 AM 30.9 °F 21.7 °F 16.0 °F 54% 29.92 in 10.0 mi SE 11.5 mph - N/A   Overcast
10:53 AM 34.0 °F 28.8 °F 17.1 °F 50% 29.90 in 10.0 mi SE 5.8 mph - N/A   Overcast
11:53 AM 35.1 °F 30.1 °F 17.1 °F 48% 29.84 in 10.0 mi SE 5.8 mph - N/A   Mostly Cloudy
12:53 PM 37.0 °F 31.0 °F 18.0 °F 46% 29.80 in 10.0 mi East 8.1 mph - N/A   Overcast
1:53 PM 32.0 °F 22.5 °F 19.9 °F 61% 29.82 in 10.0 mi NE 12.7 mph - N/A   Overcast
2:53 PM 28.0 °F 16.5 °F 19.0 °F 69% 29.84 in 10.0 mi NE 15.0 mph - N/A   Overcast
3:53 PM 21.9 °F 7.8 °F 15.1 °F 75% 29.89 in 10.0 mi NE 17.3 mph - N/A   Overcast
4:53 PM 17.1 °F 2.0 °F 12.0 °F 81% 29.95 in 4.0 mi NE 16.1 mph 21.9 mph 0.00 in Snow Light Snow
5:53 PM 16.0 °F 10.4 °F 12.0 °F 84% 30.01 in 2.5 mi North 3.5 mph - 0.00 in Snow Light Snow
6:07 PM 15.8 °F 7.2 °F 10.4 °F 79% 29.87 in 3.0 mi NNE 5.8 mph - 0.00 in Snow Light Snow
6:33 PM 15.8 °F 8.6 °F 10.4 °F 79% 29.89 in 4.0 mi NNE 4.6 mph - 0.00 in Snow Light Snow
6:53 PM 15.1 °F 7.7 °F 10.0 °F 80% 30.05 in 5.0 mi North 4.6 mph - 0.00 in Snow Light Snow
7:14 PM 14.0 °F 5.1 °F 8.6 °F 79% 29.91 in 2.0 mi NNE 5.8 mph - 0.00 in Snow Light Snow
7:29 PM 14.0 °F 5.1 °F 8.6 °F 79% 29.92 in 4.0 mi North 5.8 mph - 0.00 in Snow Light Snow
7:53 PM 12.9 °F 5.2 °F 8.1 °F 81% 30.09 in 2.0 mi North 4.6 mph - 0.00 in Snow Light Snow
8:04 PM 12.2 °F 6.1 °F 8.6 °F 85% 29.95 in 1.8 mi North 3.5 mph - 0.00 in Snow Light Snow
8:25 PM 12.2 °F 1.7 °F 6.8 °F 79% 29.96 in 1.5 mi NE 6.9 mph - 0.00 in Snow Light Snow
8:53 PM 10.9 °F -0.8 °F 6.1 °F 81% 30.13 in 1.2 mi North 8.1 mph - 0.00 in Snow Light Snow
9:32 PM 10.4 °F -0.4 °F 3.2 °F 73% 30.00 in 2.0 mi NNE 6.9 mph - 0.00 in Snow Light Snow
9:49 PM 10.4 °F -0.4 °F 3.2 °F 73% 30.01 in 3.0 mi NNE 6.9 mph - 0.00 in Snow Light Snow
9:53 PM 9.0 °F -4.2 °F 3.0 °F 77% 30.17 in 2.5 mi NNE 9.2 mph - 0.00 in Snow Light Snow
10:15 PM 8.6 °F -1.3 °F 3.2 °F 79% 30.02 in 3.0 mi North 5.8 mph - 0.00 in Snow Light Snow
10:53 PM 8.1 °F -5.3 °F 1.9 °F 76% 30.20 in 4.0 mi NNE 9.2 mph - 0.00 in Snow Light Snow
11:53 PM 7.0 °F 0.1 °F 1.0 °F 77% 30.22 in 4.0 mi North 3.5 mph - 0.00 in Snow Light Snow